Flag for U.S.A. Weather past 2 weeks in Virginia Beach, Virginia, U.S.A.

Now
69 °F

Cloudy.


Feels Like: 69 °F
Forecast: 44 / 64 °F
Wind: 9 mph from Southwest

Location: Virginia Beach - Oceana

Current Time: Mar 26, 2015 at 8:24:25 PM

Latest Report: Mar 26, 2015 at 7:56 PM


Visibility: 10 mi

Pressure: 29.71 "Hg

Humidity: 76%

Dew point: 61 °F

Location of Virginia BeachLocation

Historic Weather in Virginia Beach — Graph

°F

Virginia Beach temperature yesterday

Maximum temperature yesterday: 64 °F (at 2:56 PM)
Minimum temperature yesterday: 42 °F (at 12:56 AM)
Average temperature yesterday: 54 °F

Past Weeks' High & Low Weather Summary

 TemperatureHumidityPressure
High82 °F (Mar 17, 2:56 PM)94% (Mar 14, 4:56 PM)30.59 "Hg (Mar 14, 4:56 PM)
Low35 °F (Mar 13, 1:56 AM)24% (Mar 18, 4:56 PM)29.64 "Hg (Mar 17, 2:56 PM)
Average51 °F62%30.14 "Hg
* Reported Mar 11 6:56 PM — Mar 26 6:56 PM, Virginia Beach, Weather by CustomWeather, © 2015

Note: Actual official high and low records may vary slightly from our data, if they occured in-between our weather recording intervals... More about our weather records

Advertising

Virginia Beach weather history for previous 24 hours

 ConditionsComfort  
Time TempWeatherWind HumidityBarometerVisibility
6:56 PM
Thu, Mar 26
69 °FBroken clouds.12 mph73%29.72 "Hg10 mi
5:56 PM69 °FCloudy.13 mph76%29.73 "Hg10 mi
4:56 PM72 °FLight rain. Mostly cloudy.21 mph73%29.74 "Hg10 mi
3:56 PM74 °FMostly cloudy.18 mph69%29.76 "Hg10 mi
2:56 PM73 °FMostly cloudy.14 mph74%29.80 "Hg10 mi
1:56 PM69 °FCloudy.21 mph81%29.83 "Hg7 mi
12:56 PM72 °FMostly cloudy.21 mph73%29.88 "Hg7 mi
11:56 AM69 °FLight rain. Mostly cloudy.17 mph70%29.93 "Hg6 mi
10:56 AM70 °FBroken clouds.12 mph68%29.96 "Hg10 mi
9:56 AM71 °FBroken clouds.17 mph66%29.97 "Hg10 mi
8:56 AM68 °FBroken clouds.15 mph70%30.00 "Hg10 mi
7:56 AM67 °FPartly cloudy.12 mph73%30.02 "Hg10 mi
6:56 AM66 °FPartly cloudy.12 mph75%30.03 "Hg10 mi
5:56 AM65 °FPassing clouds.9 mph76%30.04 "Hg10 mi
4:56 AM66 °FPartly cloudy.13 mph73%30.05 "Hg10 mi
3:56 AM65 °FPartly cloudy.13 mph76%30.08 "Hg10 mi
2:56 AM64 °FPassing clouds.12 mph78%30.11 "Hg10 mi
1:56 AM65 °FPassing clouds.9 mph76%30.13 "Hg10 mi
12:56 AM65 °FPassing clouds.12 mph76%30.15 "Hg10 mi
11:56 PM
Wed, Mar 25
64 °FMostly cloudy.9 mph75%30.18 "Hg10 mi
10:56 PM62 °FOvercast.9 mph75%30.19 "Hg10 mi
9:56 PM60 °FOvercast.7 mph78%30.20 "Hg10 mi
8:56 PM59 °FPartly cloudy.7 mph78%30.19 "Hg10 mi
Weather by CustomWeather, © 2015

See weather overviewHow to use our weather pages